Tracking 19570 objects as of 22-Feb-2019
HD Live streaming from Space Station
objects crossing your sky now

COSMOS 1066

Track COSMOS 1066 now!
10-day predictions
COSMOS 1066 is classified as:


NORAD ID: 11165
Int'l Code: 1978-121A
Perigee: 824.4 km
Apogee: 897.6 km
Inclination: 81.2 °
Period: 102.0 minutes
Semi major axis: 7232 km
RCS: 4.6495 m2 (large)
Launch date: December 23, 1978
Source: Commonwealth of Independent States (former USSR) (CIS)
Launch site: PLESETSK MISSILE AND SPACE COMPLEX (PKMTR)
aabbcc
Your satellite tracking list
Your tracking list is empty




NASA's NSSDC Master Catalog

Two Line Element Set (TLE):
1 11165U 78121A   19052.85895255  .00000072  00000-0  32050-4 0  9990
2 11165  81.2405 346.3300 0050628 118.4810 242.1475 14.11606058584542
Source of the keplerian elements: AFSPC